Theta_e
318 319 321 322 329 329 327 318 318 321 330 341 344 342 337 337 339 340 339 337 334 333
316 317 316 320 325 328 330 330 320 323 337 342 345 344 340 335 337 340 340 339 329 325
315 314 316 321 322 326 331 333 334 334 337 336 339 339 338 335 335 337 334 330 324 320
309 314 317 318 320 324 327 332 332 335 335 336 334 335 334 332 329 329 325 324 317 313
308 311 315 318 318 320 325 328 333 335 334 333 332 330 331 327 326 322 321 318 315 312
308 308 309 316 317 319 322 327 328 333 328 328 329 326 324 317 311 309 309 308 310 312
306 308 309 315 318 320 323 325 325 326 324 324 320 317 312 310 309 309 307 306 305 305
306 308 310 314 316 318 320 322 324 323 321 318 315 311 308 308 308 305 304 305 304 305
306 307 309 312 314 314 316 318 324 322 318 316 314 306 307 306 303 303 303 303 303 304
306 307 308 311 313 312 315 317 319 317 314 311 308 303 303 305 304 302 301 299 299 300
306 307 308 308 309 311 315 316 315 310 308 304 302 301 301 302 301 299 298 298 298 297
308 307 307 307 307 311 310 308 308 307 305 302 300 299 299 300 299 297 295 295 297 298
306 307 307 308 310 309 307 305 304 301 302 301 299 297 298 299 297 295 295 294 294 297
306 309 310 309 307 305 304 303 301 300 300 299 297 296 296 296 296 295 294 293 292 293
Wind_Speed
6 4 6 8 8 4 3 5 6 7 10 15 10 8 7 6 8 11 10 15 13 10
7 6 6 9 10 5 4 5 8 10 15 11 8 7 7 7 10 10 12 9 3 2
8 8 7 7 7 7 6 6 7 9 9 8 7 8 8 5 7 8 3 4 9 10
13 13 8 7 6 6 6 8 8 7 7 8 6 6 5 4 4 6 5 6 9 8
13 14 11 7 7 6 7 8 8 7 7 5 5 3 5 3 5 6 5 5 10 10
14 12 14 9 8 7 7 10 7 8 2 4 5 9 11 14 16 17 16 14 14 8
12 14 12 11 8 7 6 8 7 2 7 9 9 11 13 14 15 13 13 14 16 14
13 13 13 12 7 8 6 7 2 8 8 7 9 7 12 10 10 11 9 9 20 15
13 12 13 12 6 7 5 5 6 7 9 9 6 9 11 13 10 10 13 12 15 16
12 11 11 11 5 6 6 2 6 8 8 8 9 13 15 18 11 12 13 14 13 10
13 12 11 9 6 3 5 3 7 9 9 11 9 19 19 21 14 13 13 12 14 8
12 10 8 8 2 6 8 7 7 8 11 14 11 16 20 20 15 14 14 9 13 3
10 10 7 3 10 7 9 9 9 12 13 18 14 14 16 18 12 15 11 10 9 8
8 10 4 7 10 12 12 13 14 16 14 15 16 17 23 21 13 11 10 12 6 4
Wind_Direction
274 269 289 296 301 298 228 214 258 256 232 253 235 224 203 216 192 213 220 220 226 214
262 268 280 290 289 280 256 222 249 240 252 241 233 237 218 211 213 189 219 206 66 147
282 260 258 270 287 289 282 258 245 234 239 242 234 237 231 214 218 207 212 151 157 151
325 301 273 261 270 288 291 279 253 256 251 241 236 239 249 250 189 124 123 148 142 130
307 311 278 261 267 282 287 282 272 244 256 265 270 239 211 147 100 103 123 159 150 140
307 303 297 275 252 265 279 284 283 252 152 113 83 73 79 84 80 75 72 51 25 11
296 298 299 279 270 263 274 288 275 249 114 99 104 104 108 113 111 115 123 114 88 62
295 295 292 283 259 279 308 310 308 109 101 121 118 119 127 126 113 117 109 114 120 105
289 290 286 291 257 289 316 302 114 125 132 127 115 131 119 116 112 106 108 104 93 104
284 283 281 292 275 304 320 329 127 123 117 112 102 102 102 105 101 109 109 106 109 106
277 274 277 290 249 304 38 80 125 115 107 97 94 104 109 102 97 94 90 96 82 101
268 275 267 275 199 88 94 89 102 103 106 102 90 95 103 100 94 89 85 82 85 53
263 265 249 217 111 94 99 111 103 84 85 97 90 72 88 97 100 99 91 67 46 44
246 244 146 116 110 110 113 109 99 93 84 81 82 77 85 91 99 101 102 82 44 38